This demonstration page uses our WeatherBlox Daily Observations layout. Learn more.

Left ArrowRight Arrow

Hourly Observations for November 6, 2018

Temp ( °F °C ) Dew Point ( °F °C ) Humidity (%) Winds ( mph kmh ) Pressure ( in mb ) Visibility ( mi km ) Precip ( " mm )
12:22 am 00:22 Cloudy with Rain 56 13.3 54 12.2 93 93 SE 7 11 29.65 1004 6 10 0.06 1.52
12:53 am 00:53 Cloudy with Rain 57 13.9 55 12.8 93 93 SE 7 11 29.62 1003 4 6 0.12 3.05
1:46 am 01:46 Mostly Cloudy 58 14.4 56 13.3 93 93 VRB 5 7 29.59 1002 10 16 0.02 0.51
1:53 am 01:53 Cloudy 58 14.4 56 13.3 93 93 SSW 5 7 29.62 1003 10 16 0.02 0.51
2:29 am 02:29 Cloudy with Light Rain 58 14.4 56 13.3 93 93 SW 7 11 29.65 1004 10 16 0.03 0.76
2:48 am 02:48 Cloudy with Light Rain 57 14 55 13 94 94 VRB 7 11 29.59 1002 10 16 0.03 0.76
2:53 am 02:53 Mostly Cloudy 59 15 56 13.3 90 90 VRB 5 7 29.60 1003 10 16 0.03 0.76
3:53 am 03:53 Cloudy with Light Rain 59 15 57 13.9 93 93 SSW 8 13 29.61 1003 10 16 0.00 0.03
4:42 am 04:42 Cloudy with Light Rain 60 15.6 56 13.3 86 86 WSW 15 24 29.65 1004 10 16 0.00 0.03
4:53 am 04:53 Cloudy 59 15 54 12.2 83 83 WSW 17 28 29.65 1004 10 16 0.00 0.03
5:53 am 05:53 Clear 56 13.3 52 11.1 87 87 SW 10 17 29.68 1005 10 16 0.00 0.00
6:18 am 06:18 Mostly Cloudy 56 13.3 51 10.6 84 84 WSW 12 19 29.71 1006 10 16 0.00 0.00
6:53 am 06:53 Cloudy 55 12.8 49 9.4 80 80 WSW 13 20 29.71 1006 10 16 0.00 0.00
7:53 am 07:53 Mostly Cloudy 54 12.2 48 8.9 80 80 WSW 8 13 29.75 1008 10 16 0.00 0.00
8:10 am 08:10 Partly Cloudy 54 12.2 47 8.3 77 77 WSW 10 17 29.77 1008 10 16 0.00 0.00
8:53 am 08:53 Sunny 55 12.8 48 8.9 77 77 SW 9 15 29.78 1008 10 16 0.00 0.00
9:17 am 09:17 Mostly Cloudy 54 12.2 47 8.3 77 77 SW 15 24 29.80 1009 10 16 0.00 0.00
9:53 am 09:53 Cloudy 56 13.3 47 8.3 72 72 SW 12 19 29.80 1009 10 16 0.00 0.00
10:53 am 10:53 Mostly Cloudy 56 13.3 44 6.7 65 65 WSW 23 37 29.82 1010 10 16 0.00 0.00
11:53 am 11:53 Mostly Cloudy 57 13.9 45 7.2 64 64 WSW 20 31 29.83 1010 10 16 0.00 0.00
12:53 pm 12:53 Partly Cloudy 58 14.4 43 6.1 58 58 WSW 20 31 29.83 1010 10 16 0.00 0.00
1:53 pm 13:53 Mostly Sunny 59 15 43 6.1 56 56 W 17 28 29.85 1011 10 16 0.00 0.00
2:53 pm 14:53 Sunny 60 15.6 42 5.6 52 52 WSW 14 22 29.86 1011 10 16 0.00 0.00
3:53 pm 15:53 Sunny 60 15.6 41 5 50 50 SW 15 24 29.88 1012 10 16 0.00 0.00
4:53 pm 16:53 Sunny 58 14.4 39 3.9 50 50 WSW 13 20 29.91 1013 10 16 0.00 0.00
5:53 pm 17:53 Clear 56 13.3 39 3.9 53 53 WSW 8 13 29.92 1013 10 16 0.00 0.00
6:53 pm 18:53 Clear 53 11.7 40 4.4 61 61 WSW 5 7 29.96 1015 10 16 0.00 0.00
7:53 pm 19:53 Clear 49 9.4 41 5 74 74 WSW 5 7 29.98 1015 10 16 0.00 0.00
8:53 pm 20:53 Clear 43 6.1 38 3.3 82 82 Calm 29.99 1016 10 16 0.00 0.00
9:53 pm 21:53 Clear 44 6.7 39 3.9 83 83 Calm 30.02 1017 10 16 0.00 0.00
10:53 pm 22:53 Clear 42 5.6 38 3.3 85 85 Calm 30.03 1017 10 16 0.00 0.00
11:53 pm 23:53 Mostly Cloudy 49 9.4 41 5 74 74 SW 6 9 30.03 1017 10 16 0.00 0.00

Powered by AerisWeather